Tracking 29487 objects as of 10-Sep-2024
HD Live streaming from Space Station
objects crossing your sky now

STARLINK-30242

Track STARLINK-30242 now!
10-day predictions
STARLINK-30242 is classified as:


NORAD ID: 57739
Int'l Code: 2023-131H
Perigee: 565.5 km
Apogee: 567.0 km
Inclination: 43.0 °
Period: 95.8 minutes
Semi major axis: 6937 km
RCS: Unknown
Launch date: September 1, 2023
Source: United States (US)
Launch site: AIR FORCE EASTERN TEST RANGE (AFETR)
Your satellite tracking list
Your tracking list is empty




NASA's NSSDC Master Catalog

Two Line Element Set (TLE):
1 57739U 23131H   24253.93278674  .00000834  00000-0  76836-4 0  9992
2 57739  43.0012 231.9252 0001080 270.3529  89.7190 15.02534821 58013
Source of the keplerian elements: AFSPC